* Astronomy

Members Login
Username 
 
Password 
    Remember Me  
Post Info TOPIC: Asteroid 2011 EL40


L

Posts: 131433
Date:
Asteroid 2011 EL40
Permalink  
 


Orbital elements:
2011 EL40 Earth MOID = 0.0066 AU
Epoch 2011 Feb. 8.0 TT = JDT 2455600.5 MPC
M 3.09722 (2000.0) P Q
n 0.22929352 Peri. 267.49607 -0.10518137 -0.99444659
a 2.6436758 Node 188.54404 +0.92171730 -0.09613376
e 0.7314991 Incl. 1.38320 +0.37332841 -0.04282852
P 4.30 H 26.3 G 0.15 U 8

MPEC 2011 - E55


Object
Name
Close
Approach
Date
Miss
Distance
(AU)
Miss
Distance
(LD)
Estimated
Diameter*
H
(mag)
Relative
Velocity
(km/s)
(2011 EL40) 2011-Mar-08 0.0086 3.4 14 m - 32 m 26.3 18.20


__________________
Page 1 of 1  sorted by
 
Quick Reply

Please log in to post quick replies.



Create your own FREE Forum
Report Abuse
Powered by ActiveBoard